TimeMST,TemperatureF,Dew PointF,Humidity,Sea Level PressureIn,VisibilityMPH,Wind Direction,Wind SpeedMPH,Gust SpeedMPH,PrecipitationIn,Events,Conditions,WindDirDegrees,DateUTC
12:56 AM,30.9,26.1,82,29.39,10.0,SSW,11.5,-,N/A,,Mostly Cloudy,200,2014-02-19 07:56:00
1:56 AM,34.0,28.9,82,29.38,9.0,WSW,27.6,36.8,0.00,Snow,Light Snow,250,2014-02-19 08:56:00
2:56 AM,32.0,28.0,85,29.42,10.0,West,25.3,29.9,0.00,,Clear,260,2014-02-19 09:56:00
3:56 AM,30.9,18.0,59,29.42,10.0,WSW,32.2,43.7,N/A,,Clear,250,2014-02-19 10:56:00
4:56 AM,28.9,18.0,64,29.45,10.0,WSW,33.4,40.3,N/A,,Clear,240,2014-02-19 11:56:00
5:56 AM,28.0,17.1,63,29.47,10.0,WSW,32.2,47.2,N/A,,Clear,240,2014-02-19 12:56:00
6:56 AM,28.0,15.1,58,29.45,10.0,WSW,28.8,42.6,N/A,,Clear,250,2014-02-19 13:56:00
7:56 AM,27.0,15.1,61,29.45,10.0,West,31.1,42.6,N/A,,Clear,260,2014-02-19 14:56:00
8:56 AM,28.9,15.1,56,29.46,10.0,West,39.1,48.3,N/A,,Clear,260,2014-02-19 15:56:00
9:56 AM,30.9,16.0,54,29.48,10.0,West,41.4,52.9,N/A,,Partly Cloudy,260,2014-02-19 16:56:00
10:56 AM,30.0,15.1,54,29.52,10.0,West,32.2,49.5,N/A,,Overcast,260,2014-02-19 17:56:00
11:56 AM,30.0,14.0,51,29.55,10.0,West,35.7,41.4,N/A,,Overcast,270,2014-02-19 18:56:00
12:56 PM,30.9,14.0,50,29.58,10.0,West,34.5,43.7,N/A,,Overcast,270,2014-02-19 19:56:00
1:56 PM,32.0,14.0,48,29.59,10.0,West,33.4,44.9,N/A,,Overcast,270,2014-02-19 20:56:00
2:56 PM,33.1,12.9,43,29.62,10.0,West,33.4,40.3,N/A,,Mostly Cloudy,270,2014-02-19 21:56:00
3:56 PM,30.9,14.0,50,29.68,10.0,West,26.5,36.8,N/A,,Overcast,280,2014-02-19 22:56:00
4:56 PM,30.9,15.1,52,29.70,10.0,WNW,20.7,-,N/A,,Overcast,290,2014-02-19 23:56:00
5:56 PM,30.0,12.0,47,29.73,10.0,WNW,28.8,34.5,N/A,,Overcast,290,2014-02-20 00:56:00
6:56 PM,28.0,12.9,53,29.78,10.0,WNW,20.7,-,N/A,,Overcast,290,2014-02-20 01:56:00
7:56 PM,28.0,12.0,51,29.82,10.0,WNW,15.0,-,N/A,,Overcast,290,2014-02-20 02:56:00
8:56 PM,26.1,18.0,71,29.86,10.0,NNW,13.8,-,N/A,,Overcast,330,2014-02-20 03:56:00
9:56 PM,21.9,18.0,85,29.89,10.0,West,9.2,-,N/A,,Mostly Cloudy,270,2014-02-20 04:56:00
10:56 PM,21.0,17.1,85,29.92,10.0,NNW,10.4,-,N/A,,Clear,330,2014-02-20 05:56:00
11:56 PM,19.9,16.0,85,29.94,10.0,NW,9.2,-,N/A,,Clear,320,2014-02-20 06:56:00